Date,TemperatureHighF,TemperatureAvgF,TemperatureLowF,DewpointHighF,DewpointAvgF,DewpointLowF,HumidityHigh,HumidityAvg,HumidityLow,PressureMaxIn,PressureMinIn,WindSpeedMaxMPH,WindSpeedAvgMPH,GustSpeedMaxMPH,PrecipitationSumIn
2012-1-1,78.7,68.9,60.3,64.1,60.7,57.9,93,76,53,30.26,30.15,9,0,9,0.00
2012-1-2,78.8,66.1,53.4,65.9,58.9,43.1,97,79,56,30.19,30.04,18,3,18,0.00
2012-1-3,54.7,49.8,42.2,44.7,29.9,11.8,76,50,19,30.36,30.16,25,4,25,0.00
2012-1-4,67.5,52.7,41.2,50.9,37.6,22.6,68,56,46,30.39,30.25,14,3,14,0.00
2012-1-5,69.0,56.5,47.5,45.2,33.4,11.7,85,47,11,30.31,30.19,12,2,12,0.00
2012-1-6,71.3,58.7,47.1,55.4,50.1,41.3,91,74,54,30.24,30.14,9,1,9,0.00
2012-1-7,75.3,63.6,51.1,56.9,53.9,48.8,93,73,43,30.20,30.11,9,0,9,0.00
2012-1-8,76.8,65.8,54.9,62.0,56.5,52.9,94,74,50,30.24,30.15,13,1,13,0.00
2012-1-9,77.3,70.7,62.7,65.4,61.8,58.7,88,74,59,30.20,30.09,12,1,12,0.00
2012-1-10,77.7,68.3,58.0,64.1,60.5,56.5,96,78,50,30.11,29.98,12,1,12,0.00
2012-1-11,75.5,69.1,61.2,68.8,64.6,59.2,95,86,74,29.99,29.81,13,0,13,0.00
2012-1-12,78.5,71.7,65.3,66.7,65.0,61.6,95,80,66,29.99,29.85,15,2,15,0.00
2012-1-13,71.3,67.5,61.5,65.3,61.4,55.4,94,81,72,30.16,29.98,12,1,12,0.01
2012-1-14,62.6,57.7,52.3,56.5,44.3,34.6,82,61,46,30.34,30.15,18,3,18,0.00
2012-1-15,71.0,58.5,45.9,48.8,38.1,25.1,69,49,23,30.43,30.33,19,3,20,0.00
2012-1-16,72.5,66.3,56.9,59.2,52.6,42.5,75,62,53,30.42,30.30,19,4,20,0.00
2012-1-17,77.3,70.4,62.1,62.6,59.4,53.4,88,69,58,30.30,30.16,16,1,16,0.00
2012-1-18,81.1,69.9,59.6,65.9,60.2,56.2,93,73,44,30.16,29.99,12,1,12,0.00
2012-1-19,76.0,67.7,58.6,62.8,57.1,48.6,92,71,39,30.14,30.00,17,3,17,0.00
2012-1-20,76.2,66.0,54.7,60.5,56.1,51.7,92,72,52,30.19,30.10,15,2,15,0.00
2012-1-21,78.3,70.0,60.4,64.0,60.3,56.2,89,72,55,30.16,30.05,13,1,13,0.00
2012-1-22,79.3,70.1,58.6,66.4,61.2,56.0,92,74,53,30.13,30.05,14,2,14,0.00
2012-1-23,78.8,73.6,69.8,68.0,66.0,63.8,85,77,67,30.13,30.06,16,1,17,0.00
2012-1-24,79.5,73.6,66.7,68.5,66.7,63.8,91,79,66,30.17,30.08,18,1,18,0.00
2012-1-25,80.0,74.3,71.0,68.9,66.6,65.3,85,77,67,30.17,30.08,18,2,18,0.00
2012-1-26,80.3,74.7,70.5,70.0,67.9,66.1,89,80,67,30.12,30.00,19,1,19,0.07
2012-1-27,86.3,76.9,71.0,71.5,68.5,62.9,90,76,48,30.07,29.94,12,1,12,0.00
2012-1-28,82.0,73.1,67.4,69.3,66.9,64.7,91,81,58,30.15,30.04,8,1,8,0.00
2012-1-29,76.5,71.3,66.3,66.7,64.1,62.0,88,78,69,30.24,30.10,18,3,18,0.00
2012-1-30,76.7,71.0,63.4,62.0,60.2,58.0,91,69,56,30.30,30.19,20,5,20,0.00
2012-1-31,76.7,71.9,68.4,64.6,62.2,59.0,77,72,65,30.31,30.21,18,4,18,0.00
2012-2-1,79.3,73.8,70.6,68.5,65.9,62.7,88,77,65,30.23,30.13,15,3,15,0.03
2012-2-2,79.3,73.1,67.4,69.8,67.2,64.9,93,82,68,30.16,30.06,14,1,14,0.05
2012-2-3,78.0,73.3,69.6,68.3,66.4,64.0,94,79,69,30.19,30.10,21,5,21,0.05
2012-2-4,78.0,73.4,71.0,69.2,67.2,64.3,90,81,73,30.16,30.05,21,5,21,0.08
2012-2-5,78.8,74.4,70.6,70.5,68.9,66.8,90,83,73,30.06,29.98,14,1,14,0.00
2012-2-6,77.7,73.5,69.4,72.1,69.5,65.7,94,87,78,30.08,29.97,13,1,13,1.88
2012-2-7,79.9,74.0,70.0,72.9,70.4,68.0,95,89,75,30.02,29.92,8,1,12,0.30
2012-2-8,75.8,71.2,68.4,69.4,67.5,64.1,96,88,76,30.05,29.96,9,2,12,0.00
2012-2-9,76.8,70.9,65.8,71.1,66.7,62.3,95,87,76,30.09,30.00,17,3,17,0.19
2012-2-10,79.2,73.3,70.1,73.9,70.6,68.2,96,91,82,30.06,29.89,13,2,13,0.54
2012-2-11,71.3,66.3,54.1,68.5,60.2,47.0,96,81,64,30.08,29.86,21,5,21,0.39
2012-2-12,61.4,52.9,46.4,47.2,40.7,32.0,81,64,46,30.26,30.07,22,5,22,0.00
2012-2-13,69.5,59.0,46.5,54.2,48.0,42.3,90,69,48,30.23,30.13,16,2,16,0.00
2012-2-14,76.2,67.2,56.2,62.0,58.1,52.4,91,73,58,30.15,30.07,13,0,13,0.00
2012-2-15,78.8,70.8,60.2,66.0,62.9,58.3,94,77,61,30.21,30.11,15,1,15,0.00
2012-2-16,80.3,73.9,68.3,68.2,66.0,63.9,88,77,63,30.19,30.07,14,0,14,0.00
2012-2-17,80.8,72.4,65.3,69.0,66.3,63.8,96,82,64,30.09,29.99,12,0,12,0.00
2012-2-18,81.0,73.0,64.5,68.6,66.5,63.3,96,81,63,30.02,29.89,12,0,12,0.00
2012-2-19,85.7,76.3,68.1,72.9,69.5,66.3,96,81,58,29.96,29.84,21,2,21,0.00
2012-2-20,75.0,67.6,60.3,67.9,58.8,54.5,89,74,53,30.16,29.93,18,4,18,0.00
2012-2-21,76.9,70.1,62.2,61.5,58.2,54.4,85,66,56,30.21,30.12,14,2,14,0.00
2012-2-22,80.3,71.0,60.4,66.0,62.9,58.1,93,76,59,30.14,29.95,12,0,12,0.00
2012-2-23,87.7,74.8,62.5,70.1,65.7,61.0,96,76,45,30.00,29.91,14,0,14,0.00
2012-2-24,86.0,75.9,67.9,73.6,70.5,66.3,98,84,59,30.04,29.95,9,0,9,0.01
2012-2-25,82.8,73.5,68.5,73.7,68.2,64.4,98,84,67,30.18,30.01,19,3,19,0.01
2012-2-26,77.1,72.9,68.3,69.7,67.5,64.7,94,83,77,30.24,30.16,19,6,19,0.10
2012-2-27,81.6,76.6,73.7,72.1,70.0,68.2,86,80,71,30.27,30.18,21,4,21,0.00
2012-2-28,82.1,76.4,71.8,71.3,69.3,67.6,89,79,68,30.24,30.16,15,3,15,0.00
2012-2-29,82.0,76.6,73.2,73.5,69.5,67.5,86,79,68,30.21,30.10,14,1,14,0.01
2012-3-1,83.6,76.8,70.9,72.4,69.7,67.7,90,79,65,30.12,30.01,13,1,13,0.00
2012-3-2,84.5,75.9,67.6,71.2,68.5,66.1,95,79,60,30.06,29.97,17,0,17,0.00
2012-3-3,85.3,78.2,73.0,73.4,70.7,68.2,88,78,63,29.99,29.86,14,0,14,0.00
2012-3-4,83.5,69.9,56.9,73.2,58.5,33.5,92,69,40,30.18,29.83,28,3,28,0.10
2012-3-5,74.8,63.8,53.0,56.7,47.4,33.9,79,56,42,30.33,30.18,19,3,19,0.00
2012-3-6,77.5,69.8,58.4,63.6,57.1,49.0,84,65,48,30.36,30.26,25,7,27,0.01
2012-3-7,76.8,72.6,69.8,68.1,64.9,60.3,90,77,69,30.34,30.24,25,8,25,0.33
2012-3-8,78.8,73.2,68.6,71.5,68.4,66.4,95,85,75,30.25,30.15,22,6,22,0.98
2012-3-9,80.2,75.2,72.7,72.6,69.3,67.0,91,82,72,30.19,30.09,18,2,18,0.15
2012-3-10,83.3,74.9,68.3,71.5,68.2,66.2,95,80,62,30.18,30.07,12,1,12,0.00
2012-3-11,80.7,75.4,71.6,68.9,66.7,64.1,83,75,65,30.25,30.14,25,6,25,0.00
2012-3-12,78.7,73.8,70.1,66.2,63.2,59.0,85,70,58,30.28,30.18,20,5,20,0.01
2012-3-13,80.3,74.1,69.8,64.7,62.5,60.8,75,68,57,30.23,30.15,16,3,16,0.00
2012-3-14,80.4,74.4,69.6,67.5,64.3,61.9,88,71,59,30.20,30.10,18,3,18,0.01
2012-3-15,78.7,74.2,71.1,69.9,67.0,65.3,87,78,70,30.20,30.10,20,5,20,0.08
2012-3-16,80.5,74.6,70.2,68.1,66.3,62.6,90,76,57,30.21,30.10,17,3,17,0.19
2012-3-17,81.3,74.2,65.9,65.9,63.7,61.7,89,70,55,30.21,30.12,15,2,15,0.00
2012-3-18,81.3,74.7,66.7,67.7,64.4,60.6,83,71,59,30.21,30.13,16,3,16,0.00
2012-3-19,81.3,75.4,71.9,67.2,63.4,59.5,83,67,51,30.16,30.06,15,3,15,0.00
2012-3-20,81.7,75.9,72.1,67.3,65.1,62.7,81,70,55,30.09,30.01,18,4,19,0.00
2012-3-21,82.8,76.9,73.8,70.1,68.4,66.1,83,75,63,30.14,30.03,20,5,20,0.00
2012-3-22,83.0,77.2,74.0,69.8,68.1,66.0,83,74,60,30.16,30.07,18,3,18,0.00
2012-3-23,83.8,76.7,72.3,67.3,65.0,60.4,78,68,49,30.12,30.02,14,2,14,0.00
2012-3-24,84.5,75.8,66.8,67.2,65.0,63.1,91,70,51,30.05,29.93,14,1,14,0.00
2012-3-25,85.0,76.3,68.1,69.4,66.2,62.3,91,72,48,29.98,29.81,19,2,19,0.00
2012-3-26,86.1,73.4,63.2,64.3,57.6,48.6,83,61,29,29.99,29.88,13,3,13,0.00
2012-3-27,82.0,74.7,67.6,67.1,63.8,58.7,90,69,57,30.16,29.97,19,4,19,0.00
2012-3-28,81.8,74.1,67.9,67.6,63.2,58.1,93,70,56,30.16,30.07,20,4,20,0.34
2012-3-29,81.7,73.5,66.5,65.5,62.7,59.8,87,70,53,30.08,29.98,14,1,14,0.00
2012-3-30,81.8,73.3,62.7,65.0,61.9,59.2,91,69,53,30.08,29.98,12,0,12,0.00
2012-3-31,83.8,75.1,67.4,73.2,67.5,61.9,93,78,61,30.02,29.87,14,0,14,0.82
2012-4-1,88.3,76.9,69.1,70.7,67.3,59.0,96,75,38,29.95,29.84,14,2,14,0.00
2012-4-2,87.1,77.0,67.2,70.7,67.6,60.7,93,74,45,29.92,29.84,12,1,12,0.00
2012-4-3,88.1,77.6,66.3,71.5,67.5,63.1,91,72,49,29.98,29.89,11,1,11,0.00
2012-4-4,86.5,77.8,69.5,72.2,69.6,67.0,95,77,54,29.98,29.83,15,0,15,0.00
2012-4-5,89.5,78.2,69.9,70.9,67.2,62.4,88,71,41,29.89,29.73,21,2,21,0.01
2012-4-6,86.7,78.3,71.8,74.7,69.7,62.4,94,76,52,29.89,29.73,26,4,26,0.46
2012-4-7,82.3,73.5,66.9,67.2,64.7,60.4,92,75,54,30.10,29.88,22,4,24,0.11
2012-4-8,78.8,73.1,68.5,61.2,59.0,56.7,71,62,51,30.15,30.07,18,3,21,0.00
2012-4-9,81.8,72.8,63.0,65.1,60.8,57.8,87,67,51,30.09,30.00,16,2,16,0.00
2012-4-10,82.8,73.9,65.0,64.2,60.4,55.5,89,65,41,30.08,29.99,13,1,15,0.00
2012-4-11,87.1,75.2,65.4,66.6,63.1,58.5,87,68,39,30.06,29.95,13,1,13,0.00
2012-4-12,87.8,76.1,65.0,67.4,63.0,56.6,87,66,36,30.04,29.95,13,2,15,0.00
2012-4-13,82.7,74.9,68.7,70.9,67.8,62.9,91,79,64,30.10,29.99,24,1,24,0.68
2012-4-14,80.0,73.5,68.2,69.1,65.4,62.0,95,77,61,30.21,30.07,20,6,24,2.42
2012-4-15,81.8,75.6,70.8,65.8,61.7,58.1,71,62,49,30.20,30.13,20,5,20,0.00
2012-4-16,82.3,76.4,72.8,64.6,61.3,56.6,69,60,49,30.20,30.10,20,4,20,0.00
2012-4-17,83.5,76.5,70.5,65.4,62.0,56.9,72,61,44,30.17,30.06,15,2,18,0.00
2012-4-18,83.5,76.8,71.6,68.4,65.9,63.6,78,70,57,30.10,29.97,16,1,16,0.00
2012-4-19,84.5,77.6,73.1,70.1,68.4,66.7,89,74,59,30.01,29.89,15,0,15,0.03
2012-4-20,87.0,76.8,67.9,72.5,69.0,65.0,96,78,57,29.95,29.83,15,1,19,1.78
2012-4-21,75.6,71.6,66.7,71.1,68.5,65.2,96,90,81,29.93,29.67,13,0,13,0.61
2012-4-22,83.7,75.0,66.6,71.7,66.9,60.8,95,78,47,29.74,29.56,26,4,27,0.74
2012-4-23,81.8,71.2,62.1,63.6,55.3,45.1,86,60,33,29.92,29.73,25,6,25,0.00
2012-4-24,76.3,66.4,56.6,51.9,45.4,34.7,79,50,23,30.03,29.90,17,3,17,0.00
2012-4-25,80.2,68.9,56.6,59.3,52.5,44.3,75,57,36,30.12,30.02,14,1,14,0.00
2012-4-26,81.8,72.6,60.4,63.9,60.7,56.4,90,67,51,30.15,30.06,13,1,13,0.00
2012-4-27,82.0,74.7,66.3,71.6,66.3,61.0,89,75,62,30.12,30.04,13,2,13,0.23
2012-4-28,78.4,75.0,70.0,73.7,71.0,66.9,94,88,75,30.08,30.02,16,1,16,0.12
2012-4-29,75.8,72.6,71.0,71.7,70.2,68.5,97,92,80,30.07,29.99,23,4,23,2.84
2012-4-30,74.5,72.6,70.6,71.8,70.2,68.3,96,92,85,30.04,29.97,25,8,25,1.27
2012-5-1,82.1,77.6,74.2,73.1,70.7,68.4,86,79,72,30.07,29.99,23,5,23,0.00
2012-5-2,83.8,78.5,74.8,72.9,70.9,69.0,86,78,68,30.09,30.00,21,5,21,0.00
2012-5-3,85.0,78.7,73.9,73.4,70.6,68.8,84,77,66,30.09,30.02,18,3,18,0.00
2012-5-4,84.5,78.4,73.0,70.4,68.7,66.2,84,73,57,30.09,30.00,14,2,14,0.00
2012-5-5,87.1,79.4,72.4,71.5,69.4,67.3,87,72,55,30.02,29.94,13,0,13,0.00
2012-5-6,88.7,79.5,71.1,74.1,70.4,66.7,93,75,52,29.99,29.88,13,0,13,0.00
2012-5-7,88.5,79.3,71.8,74.2,70.7,63.0,93,76,54,29.94,29.84,15,1,15,0.00
2012-5-8,87.7,75.8,70.3,74.7,69.6,65.6,95,82,56,29.92,29.86,10,0,12,0.26
2012-5-9,89.5,77.3,69.3,75.6,71.1,68.1,97,82,57,29.91,29.79,9,0,9,0.03
2012-5-10,89.4,78.7,73.1,76.6,72.8,69.9,93,83,54,29.89,29.77,24,1,24,0.53
2012-5-11,85.9,78.0,70.0,76.3,72.4,68.5,96,83,70,30.08,29.87,15,2,15,0.00
2012-5-12,83.6,79.4,75.4,73.0,70.8,67.6,90,75,62,30.16,30.05,19,5,19,0.07
2012-5-13,84.0,79.4,75.6,72.3,70.2,67.9,80,74,66,30.12,30.00,18,3,18,0.00
2012-5-14,87.2,80.0,74.3,75.4,73.2,70.3,91,80,66,30.05,29.94,15,1,15,0.09
2012-5-15,87.8,78.0,71.5,78.7,73.7,68.0,94,87,67,30.01,29.94,14,0,14,0.90
2012-5-16,83.5,76.0,71.1,74.9,72.6,69.7,96,89,68,30.02,29.92,6,0,8,0.02
2012-5-17,83.2,76.1,68.9,76.1,72.3,67.1,96,88,75,29.98,29.86,8,0,8,0.23
2012-5-18,87.6,75.3,67.0,74.9,70.9,65.2,96,87,62,29.94,29.86,16,0,31,0.02
2012-5-19,87.0,74.9,70.0,76.9,71.7,69.0,97,90,66,29.97,29.87,9,0,9,0.27
2012-5-20,86.5,77.2,70.0,74.4,71.3,68.7,97,83,62,29.97,29.88,11,0,11,0.04
2012-5-21,87.5,78.5,70.4,73.8,71.6,68.8,97,80,61,29.98,29.91,12,0,12,0.03
2012-5-22,84.8,76.9,72.7,74.4,72.4,70.1,96,86,67,29.97,29.91,9,0,15,0.30
2012-5-23,86.0,78.1,73.6,76.7,73.2,70.9,95,85,67,29.93,29.84,13,1,13,0.22
2012-5-24,83.6,76.1,72.4,74.7,72.3,69.7,96,88,72,29.90,29.81,24,1,24,0.68
2012-5-25,80.5,72.9,71.1,75.5,70.6,69.1,95,93,85,29.98,29.87,6,0,6,0.00
2012-6-2,91.0,82.3,74.6,78.2,74.6,71.1,96,79,58,29.97,29.88,10,2,16,0.06
2012-6-3,94.4,82.3,73.8,75.4,72.3,69.8,94,73,49,30.03,29.94,7,1,11,0.00
2012-6-4,92.6,84.4,76.6,77.6,73.6,70.5,92,71,51,30.00,29.87,10,2,17,0.00
2012-6-5,93.0,84.6,78.4,77.6,74.5,70.3,93,73,48,29.89,29.81,13,2,16,0.00
2012-6-6,87.4,83.1,79.9,78.2,75.7,70.8,87,79,65,29.96,29.87,0,0,7,0.00
2012-6-7,94.9,85.5,79.6,79.3,76.4,73.1,92,76,52,29.97,29.91,8,0,15,0.02
2012-6-8,91.6,82.2,76.4,78.9,75.6,71.9,91,81,60,29.96,29.90,11,0,20,0.20
2012-6-9,89.0,82.4,77.2,79.8,77.1,74.0,95,84,72,30.02,29.91,18,1,18,0.03
2012-6-10,90.0,83.7,78.4,79.5,77.0,74.7,94,81,68,30.11,29.98,16,2,16,0.00
2012-6-11,87.9,82.7,79.4,75.5,72.2,68.9,84,71,58,30.10,30.02,16,2,16,0.00
2012-6-12,87.7,81.6,76.4,71.2,69.2,67.3,75,67,54,30.07,29.96,14,2,14,0.00
2012-6-13,90.5,82.0,72.1,74.2,71.0,68.6,91,70,54,29.99,29.88,11,1,12,0.00
2012-6-14,96.8,83.6,73.8,78.4,74.0,68.4,90,74,42,30.01,29.88,13,1,13,0.07
2012-6-15,90.8,79.5,70.8,78.6,73.5,63.0,94,83,60,30.02,29.91,33,1,33,0.79
2012-6-16,88.2,81.2,75.2,74.2,71.6,67.8,89,73,59,30.02,29.92,21,2,21,0.01
2012-6-17,87.3,81.1,76.2,70.5,68.1,64.5,76,65,54,30.02,29.92,17,2,17,0.00
2012-6-18,87.1,81.5,77.2,71.4,67.9,64.8,76,64,49,30.02,29.93,16,3,16,0.00
2012-6-19,85.3,81.3,78.9,74.8,72.1,68.7,85,74,68,30.02,29.95,23,5,23,0.02
2012-6-20,82.2,77.3,74.3,77.2,74.4,73.0,96,91,78,30.01,29.92,16,1,17,2.10
2012-6-21,87.5,81.3,76.2,77.2,74.9,72.0,89,81,69,29.98,29.87,17,1,17,0.03
2012-6-22,84.8,78.2,74.0,77.5,74.9,72.5,96,90,77,29.95,29.83,11,0,11,0.63
2012-6-23,85.2,78.2,73.4,80.0,75.1,70.4,97,91,78,30.00,29.85,16,0,16,0.49
2012-6-24,82.6,78.8,72.9,79.7,76.7,71.4,97,93,88,29.98,29.86,14,0,14,1.11
2012-6-25,90.5,83.7,80.9,78.6,76.9,74.2,89,80,61,29.86,29.76,10,0,10,0.00
2012-6-26,91.0,83.9,78.0,77.7,75.0,72.6,92,76,58,29.78,29.71,24,1,24,0.12
2012-6-27,92.5,84.6,79.4,78.6,76.5,74.2,92,78,56,29.98,29.76,24,2,24,0.10
2012-6-28,90.0,82.6,74.8,77.3,73.9,70.4,88,76,61,30.06,29.98,14,1,14,0.00
2012-6-29,91.5,84.4,77.7,77.6,74.1,71.5,84,72,56,30.05,29.93,12,1,12,0.00
2012-6-30,93.3,84.8,77.1,78.4,74.5,68.4,88,72,55,30.01,29.92,11,0,11,0.00
2012-7-1,92.5,84.8,78.4,79.2,75.2,72.1,90,74,55,30.08,29.98,12,0,12,0.00
2012-7-2,92.4,84.5,77.4,78.3,75.0,70.0,93,75,50,30.11,29.99,14,1,14,0.00
2012-7-3,92.8,84.5,76.6,77.7,75.3,72.9,90,75,58,30.07,29.99,13,1,13,0.00
2012-7-4,91.3,84.6,79.6,78.1,76.0,72.3,89,76,59,30.08,30.00,13,1,13,0.00
2012-7-5,90.8,83.7,77.0,79.9,74.5,71.7,88,75,55,30.06,29.97,14,1,14,0.03
2012-7-6,91.8,84.7,76.6,78.1,75.1,70.3,87,74,59,30.05,29.99,14,2,14,0.00
2012-7-7,91.7,85.0,78.3,78.5,75.8,73.1,88,74,59,30.08,30.01,18,2,18,0.00
2012-7-8,92.5,84.2,78.7,78.3,75.9,73.0,90,77,57,30.07,30.01,13,1,13,0.00
2012-7-9,90.3,82.8,77.5,78.1,75.7,72.2,93,80,64,30.06,29.96,13,1,13,0.00
2012-7-10,90.3,83.7,78.0,79.5,76.1,74.0,90,79,61,30.03,29.93,18,1,18,0.08
2012-7-11,85.8,78.4,72.8,76.5,73.9,71.3,97,87,66,30.07,29.94,16,0,16,0.87
2012-7-12,87.8,80.8,74.1,76.7,74.0,70.0,93,80,63,30.05,29.95,10,0,10,0.20
2012-7-13,88.2,81.7,74.9,78.4,75.0,72.2,95,81,66,30.05,29.97,14,1,14,0.53
2012-7-14,88.3,82.9,80.2,79.1,75.0,72.7,85,77,66,30.08,29.97,19,2,19,0.19
2012-7-15,87.5,79.5,72.4,76.4,73.5,70.3,95,82,66,30.11,30.02,13,0,13,0.65
2012-7-16,87.5,77.6,72.3,78.4,74.2,71.0,97,90,71,30.10,29.98,11,0,11,0.86
2012-7-17,89.8,78.3,73.5,79.5,74.8,71.3,97,89,67,30.05,29.96,13,0,13,0.60
2012-7-18,92.2,82.4,73.2,79.9,75.6,71.2,96,81,56,30.13,29.99,13,0,13,0.00
2012-7-19,91.8,84.5,77.7,78.9,76.7,74.2,94,78,59,30.18,30.09,12,1,12,0.00
2012-7-20,91.0,85.4,81.1,79.3,77.1,75.6,85,77,65,30.13,30.03,15,2,15,0.00
2012-7-21,90.8,85.7,81.9,80.2,78.3,76.5,87,79,68,30.09,30.02,16,3,17,0.00
2012-7-22,87.3,80.4,73.2,79.1,75.9,70.4,96,87,76,30.14,30.02,19,2,19,1.17
2012-7-23,89.2,81.5,74.8,79.7,76.8,73.3,96,86,69,30.16,30.08,15,1,15,0.42
2012-7-24,92.0,85.3,81.6,80.6,78.3,71.1,92,80,66,30.14,30.01,12,0,12,0.00
2012-7-25,93.7,85.0,77.6,78.3,76.2,74.2,92,76,58,30.06,29.98,11,0,11,0.00
2012-7-26,92.8,84.8,76.8,78.6,75.5,73.0,93,75,55,30.05,29.98,14,1,14,0.00
2012-7-27,92.6,84.9,77.5,79.4,76.2,74.0,92,76,58,30.09,29.99,15,1,15,0.00
2012-7-28,92.8,84.1,76.6,78.9,75.6,71.7,93,76,58,30.12,30.03,12,1,12,0.03
2012-7-29,93.2,84.9,76.5,78.5,75.0,72.3,93,74,55,30.09,30.00,13,1,13,0.00
2012-7-30,92.8,83.7,77.3,79.5,74.1,68.5,89,74,54,30.06,29.97,16,1,16,0.03
2012-7-31,93.7,84.2,75.5,77.8,74.0,70.2,88,72,55,30.05,29.96,7,0,12,0.00
2012-8-1,93.7,84.0,77.7,79.0,75.8,72.9,90,77,56,30.02,29.93,12,0,13,0.11
2012-8-2,92.9,84.6,77.6,80.0,77.0,74.9,94,79,61,30.00,29.91,14,1,14,0.04
2012-8-3,92.4,81.8,76.5,79.6,76.3,72.0,95,84,63,30.02,29.91,16,1,16,0.56
2012-8-4,92.3,83.0,76.2,79.8,76.4,73.7,96,81,62,30.04,29.93,15,1,15,0.00
2012-8-5,91.9,84.5,78.6,79.9,77.4,72.9,92,80,65,30.08,30.00,19,2,19,0.65
2012-8-6,87.7,81.1,77.1,80.1,77.3,74.3,95,88,78,30.06,29.98,14,1,14,0.54
2012-8-7,91.8,84.9,78.0,79.7,77.3,75.3,94,79,60,30.03,29.95,13,1,13,0.10
2012-8-8,92.9,85.9,81.8,80.8,77.2,74.5,88,76,57,30.04,29.96,12,2,12,0.04
2012-8-9,92.6,86.2,81.4,79.5,77.2,75.6,85,75,62,30.03,29.91,15,2,15,0.00
2012-8-10,89.5,82.2,79.9,78.0,75.1,72.5,87,79,66,30.00,29.92,14,1,14,0.02
2012-8-11,90.7,80.0,75.7,78.8,74.6,71.1,93,84,63,30.05,29.93,9,0,9,0.31
2012-8-12,93.3,80.6,75.3,79.7,75.9,70.7,95,87,60,30.05,29.97,19,0,19,0.55
2012-8-13,92.2,83.3,76.5,81.5,77.5,74.6,97,84,63,30.06,29.98,12,1,12,0.16
2012-8-14,93.2,84.7,76.9,81.0,77.4,73.5,96,80,58,30.05,29.95,12,0,12,0.45
2012-8-15,92.6,85.0,79.2,80.1,77.4,73.6,93,79,63,30.04,29.97,8,0,8,0.00
2012-8-16,90.5,83.1,78.6,81.6,77.3,74.6,93,83,66,30.07,29.99,9,0,9,0.09
2012-8-17,93.7,81.8,73.6,79.3,75.1,67.7,96,82,50,30.05,29.93,28,0,28,0.69
2012-8-18,93.8,80.0,75.1,79.9,75.7,72.9,97,88,56,30.00,29.91,18,0,18,0.93
2012-8-19,93.8,84.1,75.7,80.3,77.1,72.8,97,81,57,30.01,29.91,11,0,11,0.00
2012-8-20,93.5,85.3,78.0,80.3,76.5,74.3,93,76,57,30.02,29.91,12,0,12,0.00
2012-8-21,93.3,84.7,76.5,78.6,75.3,71.9,89,74,57,30.08,29.98,15,0,15,0.01
2012-8-22,92.8,83.1,75.6,80.3,74.8,69.6,89,77,61,30.09,30.01,16,1,16,0.00
2012-8-23,92.0,84.0,76.9,79.4,75.3,71.3,92,76,60,30.08,30.00,14,1,14,0.21
2012-8-24,89.8,83.6,74.4,79.7,75.0,68.3,92,76,66,30.03,29.90,21,3,21,0.98
2012-8-25,85.0,79.1,73.3,79.8,75.2,70.5,95,88,79,29.98,29.86,21,2,21,0.11
2012-8-26,84.1,79.4,75.9,78.2,76.7,72.9,97,92,79,29.87,29.68,28,6,33,5.74
2012-8-27,86.0,80.7,75.5,80.9,78.0,73.4,96,92,83,29.95,29.72,23,1,25,1.92
2012-8-28,92.0,83.6,78.2,82.4,78.4,75.3,96,85,69,30.00,29.92,14,0,14,0.21
2012-8-29,92.0,84.6,79.6,79.6,77.4,76.0,90,80,64,30.00,29.91,14,0,14,0.00
2012-8-30,91.4,84.1,77.3,79.3,76.5,73.9,93,79,63,30.10,29.96,12,0,12,0.00
2012-8-31,91.3,84.8,80.9,78.2,76.6,73.4,89,77,57,30.14,30.05,9,0,9,0.00
2012-9-1,91.5,84.2,78.1,79.2,76.6,74.9,92,79,64,30.11,30.01,16,2,16,0.00
2012-9-2,88.5,82.2,76.4,77.4,74.6,72.7,94,78,63,30.05,29.96,17,2,17,0.15
2012-9-3,90.0,82.8,76.2,77.9,74.1,72.0,88,75,62,30.04,29.96,14,1,14,0.00
2012-9-4,90.8,81.3,75.4,78.1,73.7,66.4,91,78,58,30.03,29.93,14,0,14,0.04
2012-9-5,91.0,78.5,71.4,78.2,73.2,68.2,93,85,62,30.01,29.92,15,0,15,0.32
2012-9-6,89.8,78.8,74.2,79.8,74.2,68.6,95,86,67,30.04,29.95,14,0,14,0.38
2012-9-7,90.4,79.8,73.0,80.7,73.9,69.5,94,83,65,30.00,29.91,13,0,13,0.36
2012-9-8,95.0,81.0,74.4,78.9,74.7,67.8,94,82,42,29.98,29.87,19,0,19,0.33
2012-9-9,94.5,85.2,77.3,78.0,74.3,70.2,89,72,48,29.98,29.88,15,1,15,0.00
2012-9-10,92.1,84.3,78.9,78.9,76.3,72.7,93,78,57,30.00,29.92,18,1,18,0.00
2012-9-11,91.8,83.1,77.2,78.7,76.2,74.2,93,80,64,30.05,29.97,16,2,16,0.10
2012-9-12,90.4,84.0,79.7,77.2,74.7,72.3,86,74,58,30.06,29.97,19,4,19,0.02
2012-9-13,82.7,79.2,74.3,77.1,74.9,71.3,96,87,76,30.07,29.96,19,2,20,1.74
2012-9-14,89.6,81.4,75.0,78.1,74.9,72.4,94,81,67,30.01,29.94,17,2,17,0.06
2012-9-15,88.9,80.9,73.7,78.8,75.2,71.6,96,84,66,30.03,29.96,23,2,23,1.05
2012-9-16,84.5,80.2,76.3,77.6,74.5,71.8,90,83,77,30.05,29.95,13,1,13,0.15
2012-9-17,87.3,80.2,74.4,78.2,74.5,71.5,94,83,72,30.02,29.91,15,1,15,0.01
2012-9-18,91.8,82.4,75.7,81.0,75.8,72.1,95,81,60,30.00,29.88,21,0,21,0.49
2012-9-19,91.0,82.0,75.0,78.8,75.8,73.8,97,83,61,30.05,29.92,8,0,8,0.11
2012-9-20,90.5,83.1,76.3,79.8,75.8,73.3,92,79,62,30.03,29.91,15,1,15,0.00
2012-9-21,89.5,80.1,72.6,77.4,74.6,70.2,95,84,66,29.98,29.89,20,1,20,0.32
2012-9-22,85.2,76.7,73.2,79.2,74.7,71.1,97,94,75,30.02,29.90,10,0,10,0.04
2012-9-23,85.2,77.7,74.3,77.9,75.4,73.1,97,93,76,30.05,29.97,15,0,15,0.02
2012-9-24,86.7,78.9,74.5,84.7,74.7,71.5,97,87,68,30.05,29.97,12,1,12,0.04
2012-9-25,88.2,79.4,73.1,77.5,73.6,68.7,94,83,64,30.07,29.98,8,1,16,0.01
2012-9-26,86.5,81.2,75.7,79.5,75.6,73.9,95,83,75,30.07,29.99,11,1,11,0.05
2012-9-27,91.2,82.8,76.5,78.6,75.6,73.8,94,80,63,30.07,29.97,12,1,12,0.05
2012-9-28,90.4,82.1,76.1,78.2,75.2,72.7,94,80,61,30.02,29.92,12,1,12,0.02
2012-9-29,90.3,82.4,75.3,78.0,75.5,72.5,94,81,62,29.96,29.84,12,1,12,0.01
2012-9-30,89.8,82.6,75.3,78.9,75.6,73.4,95,80,64,29.90,29.78,13,0,13,0.02
2012-10-1,88.0,79.3,75.3,78.9,75.6,73.6,97,89,72,29.88,29.76,13,0,13,0.01
2012-10-2,87.3,76.6,-90.0,75.8,52.1,-99.9,97,48,6,30.05,29.86,12,0,12,0.00
2012-10-3,87.4,81.4,76.2,52.2,5.0,-31.1,32,3,1,30.16,30.03,13,0,13,0.01
2012-10-4,90.5,84.7,81.2,73.7,45.1,-14.1,59,32,2,30.15,30.04,15,2,15,0.01
2012-10-5,89.5,84.1,81.1,73.4,51.2,-5.3,61,36,3,30.08,29.92,13,2,13,0.00
2012-10-6,88.7,82.5,76.2,73.1,41.6,-30.0,61,32,1,29.97,29.84,13,1,13,0.01
2012-10-7,87.7,78.5,72.8,59.8,5.8,-27.1,40,3,1,29.96,29.85,12,0,12,0.01
2012-10-8,88.5,80.6,73.7,66.7,12.1,-27.7,49,8,1,30.01,29.90,6,0,6,0.01
2012-10-9,90.0,82.5,76.4,71.4,25.5,-28.5,55,17,1,30.01,29.93,12,1,12,0.01
2012-10-10,88.4,81.4,75.6,64.7,28.8,-27.2,46,19,2,30.05,29.96,16,2,16,0.01
2012-10-11,86.5,79.7,72.1,69.4,44.1,-31.6,58,37,1,30.10,30.02,17,2,17,0.00
2012-10-12,86.3,80.4,75.3,68.1,62.9,49.9,59,55,42,30.10,30.02,20,3,20,0.00
2012-10-13,84.8,78.5,72.3,68.4,45.6,-33.2,60,38,2,30.09,30.00,22,4,22,0.01
2012-10-14,84.9,80.9,77.0,64.7,38.9,-30.3,60,26,3,30.04,29.91,25,4,25,0.03
2012-10-15,89.5,82.3,76.4,72.3,35.4,-31.1,58,28,1,29.93,29.77,15,2,15,0.02
2012-10-16,89.0,80.3,73.4,71.2,35.0,-31.1,56,27,1,29.84,29.75,14,2,14,0.02
2012-10-17,87.8,78.4,70.6,65.6,21.9,-31.9,49,15,1,29.88,29.78,19,0,19,0.01
2012-10-18,90.3,80.7,73.5,67.8,9.5,-27.2,48,5,1,29.87,29.79,9,0,9,0.02
2012-10-19,85.6,79.8,76.0,52.6,4.2,-28.1,34,2,2,29.89,29.80,8,0,8,0.00
2012-10-20,87.8,79.6,75.5,57.8,12.8,-29.5,37,7,1,29.92,29.83,13,1,13,0.03
2012-10-21,86.8,78.5,72.0,67.5,43.8,-33.8,55,37,2,29.99,29.88,15,2,15,0.02
2012-10-22,86.2,79.8,73.9,68.1,58.6,43.1,56,49,33,30.01,29.93,21,4,21,0.02
2012-10-23,85.8,80.0,74.4,67.7,50.6,-31.5,56,40,2,29.97,29.90,20,4,20,0.00
2012-10-24,86.1,79.0,73.9,67.7,22.2,-31.3,55,17,1,29.95,29.82,21,5,21,0.00
2012-10-25,79.7,76.5,72.4,49.8,2.7,-33.3,38,2,1,29.82,29.61,31,6,31,0.00
2012-10-26,78.9,74.0,69.8,57.2,7.6,-33.1,48,5,1,29.62,29.46,26,7,30,0.01
2012-10-27,84.2,74.4,67.3,64.8,31.7,-36.3,55,27,1,29.68,29.47,30,10,30,0.00
2012-10-28,82.2,73.0,67.9,62.6,31.0,-36.2,55,28,1,29.77,29.66,22,6,22,0.00
2012-10-29,73.5,65.5,59.0,51.1,41.6,23.0,58,43,23,29.86,29.74,23,7,23,0.00
2012-10-30,73.3,63.7,55.1,51.4,44.3,27.4,59,50,30,30.00,29.82,22,4,22,0.00
2012-10-31,74.7,64.5,54.0,55.8,29.2,-44.0,56,29,1,30.06,29.97,16,1,16,0.00
2012-11-1,80.8,68.7,56.8,62.3,25.0,-40.9,54,23,1,30.07,29.95,12,1,12,0.00
2012-11-2,82.6,71.5,60.9,60.2,26.7,-33.6,54,23,9,30.08,29.99,12,0,12,0.00
2012-11-3,84.5,69.3,57.5,60.6,28.9,-42.1,54,24,1,30.13,30.04,10,0,10,0.00
2012-11-4,82.2,71.2,62.3,63.2,24.3,-35.8,53,20,4,30.10,30.00,8,0,8,0.00
2012-11-5,81.3,72.0,65.9,60.8,30.2,-34.9,54,26,5,30.02,29.92,9,0,9,0.00
2012-11-6,84.1,72.7,64.2,60.8,22.9,-37.2,52,18,1,29.93,29.81,12,1,15,0.00
2012-11-7,74.0,67.1,57.8,55.8,30.1,-38.7,55,31,4,29.98,29.83,22,4,22,0.00
2012-11-8,71.2,61.4,51.9,47.2,29.6,-45.6,56,32,1,30.10,29.96,18,2,18,0.00
2012-11-9,77.1,66.8,55.1,56.5,31.0,-43.8,55,32,1,30.19,30.08,18,2,18,0.00
2012-11-10,77.3,72.7,69.6,57.8,54.8,52.0,55,53,47,30.24,30.15,20,3,20,0.00
2012-11-11,81.1,75.5,68.1,62.5,47.9,-36.1,55,43,1,30.22,30.15,21,4,21,0.00
2012-11-12,81.5,74.9,70.5,60.1,21.3,-32.4,49,15,1,30.19,30.10,20,4,21,0.00
2012-11-13,81.4,74.9,69.7,62.5,30.4,-33.9,53,23,4,30.13,30.03,17,3,17,0.01
2012-11-14,82.1,74.2,67.5,61.1,26.8,-34.8,49,20,1,30.11,30.03,16,2,16,0.01
2012-11-15,82.6,73.3,65.5,63.8,23.6,-35.5,53,20,1,30.08,30.01,13,1,13,0.00
2012-11-16,77.2,70.3,65.9,28.6,2.2,-33.0,17,2,3,30.10,30.00,10,1,10,0.00
2012-11-17,78.4,72.1,67.1,42.0,3.1,-32.2,28,2,3,30.09,30.00,14,2,14,0.00
2012-11-18,82.0,72.5,68.3,54.8,6.1,-32.7,41,5,1,30.10,30.01,17,3,17,0.00
2012-11-19,74.8,66.1,61.5,48.8,8.7,-37.6,40,8,1,30.11,30.00,13,1,13,0.00
2012-11-20,71.5,65.6,61.1,0.0,0.0,0.0,0,0,100,30.03,29.91,14,2,14,0.00
2012-11-21,78.3,66.7,58.2,57.3,15.6,-40.7,51,15,1,30.02,29.91,18,2,18,0.00
2012-11-22,76.5,63.9,54.8,56.7,29.8,-44.2,54,33,1,30.10,29.99,18,4,18,0.00
2012-11-23,79.8,63.9,53.2,59.2,23.8,-44.6,53,24,1,30.13,30.03,11,2,11,0.00
2012-11-24,75.8,63.0,52.5,55.6,21.6,-42.2,53,21,1,30.11,29.99,16,1,16,0.00
2012-11-25,77.8,64.3,55.2,56.0,19.7,-40.7,52,18,1,30.12,30.04,8,1,8,0.00
2012-11-26,79.5,68.5,57.4,59.5,17.4,-36.3,51,14,1,30.19,30.09,12,0,12,0.00
2012-11-27,79.5,71.3,65.8,49.8,7.2,-33.1,36,5,2,30.18,30.08,13,0,13,0.00
2012-11-28,80.5,71.2,66.6,59.6,8.3,-33.1,50,7,1,30.17,30.08,18,2,18,0.00
2012-11-29,76.7,69.7,62.9,0.0,-0.5,-32.2,4,0,1,30.20,30.13,19,4,19,0.03
2012-11-30,76.5,71.3,69.0,54.2,14.0,-35.5,46,12,1,30.21,30.11,21,5,21,0.01
2012-12-1,78.8,72.3,69.5,53.8,13.9,-34.8,42,12,1,30.18,30.10,20,5,20,0.01
2012-12-2,77.5,72.2,69.3,48.5,10.9,-34.5,40,8,1,30.22,30.13,19,4,19,0.00
2012-12-3,78.3,72.5,68.9,58.7,31.5,-35.4,54,29,2,30.23,30.14,17,3,17,0.01
2012-12-4,78.2,72.1,67.4,58.9,33.9,-35.4,53,29,1,30.22,30.13,15,3,16,0.00
2012-12-5,79.8,72.1,67.4,59.5,14.6,-35.3,50,12,1,30.14,30.00,14,2,14,0.00
2012-12-6,80.0,73.3,70.5,57.7,9.0,-34.0,47,7,1,30.00,29.89,11,1,12,0.00
2012-12-7,79.3,74.5,72.2,37.2,2.4,-31.8,22,2,1,29.97,29.89,12,1,12,0.00
2012-12-8,79.2,76.6,72.8,0.0,0.0,0.0,0,0,100,30.02,29.94,16,2,16,0.00
2012-12-9,83.9,77.9,72.2,0.0,0.0,0.0,0,0,100,30.08,29.98,7,0,7,0.00
2012-12-10,84.5,78.9,72.4,0.0,0.0,0.0,0,0,100,30.01,29.90,9,0,9,0.00
2012-12-11,85.3,79.3,71.8,0.0,0.0,0.0,0,0,100,30.05,29.92,6,0,11,0.00
2012-12-12,79.9,78.2,74.8,0.0,0.0,0.0,0,0,100,30.09,30.00,9,0,9,0.00
2012-12-13,76.8,72.5,67.4,0.0,0.0,0.0,0,0,100,30.09,30.01,11,1,11,0.03
2012-12-14,72.6,66.5,64.3,0.0,0.0,0.0,0,0,100,30.12,30.03,18,1,18,0.19
2012-12-15,75.3,71.8,69.5,40.6,2.5,-34.8,29,3,1,30.09,30.01,15,4,15,0.00
2012-12-16,76.8,74.2,71.1,38.5,5.3,-32.2,26,4,1,30.04,29.93,14,1,14,0.00
2012-12-17,82.5,73.6,66.4,62.5,10.6,-31.6,51,8,2,29.97,29.87,12,0,12,0.00
2012-12-18,82.8,74.4,68.7,57.9,7.4,-32.5,44,6,2,30.00,29.90,12,1,12,0.00
2012-12-19,82.0,72.4,63.5,61.9,19.3,-35.4,51,16,1,30.08,29.99,10,0,10,0.00
2012-12-20,81.7,73.1,66.0,62.3,14.8,-33.3,52,12,1,30.08,29.96,12,0,12,0.00
2012-12-21,72.2,64.6,48.6,47.3,22.1,-15.0,57,25,4,30.16,29.94,18,5,23,0.00
2012-12-22,64.7,53.6,44.2,37.0,29.3,12.4,59,40,27,30.25,30.16,17,3,17,0.00
2012-12-23,72.4,60.3,49.0,55.0,40.8,-31.5,60,51,2,30.23,30.12,8,1,11,0.00
2012-12-24,77.3,65.4,56.2,59.6,24.1,-39.7,56,23,2,30.14,29.98,13,0,13,0.00
2012-12-25,77.0,68.5,59.5,54.6,11.6,-35.4,46,9,2,30.04,29.92,15,0,15,0.00
2012-12-26,80.2,74.5,65.4,34.1,1.0,-31.3,20,1,1,29.98,29.83,19,1,19,0.08
2012-12-27,72.6,61.4,52.4,50.5,23.5,-43.7,55,26,1,30.07,29.97,13,1,13,0.00
2012-12-28,78.3,69.3,49.4,24.3,0.3,-47.5,33,1,1,30.07,29.96,12,0,12,0.00
2012-12-29,82.7,76.3,63.0,0.0,0.0,0.0,0,0,100,30.09,29.92,16,2,16,0.00
2012-12-30,67.2,59.2,48.6,40.5,15.0,-45.1,38,15,1,30.27,30.09,21,3,21,0.00
2012-12-31,75.4,68.3,61.9,56.0,34.0,1.0,51,30,8,30.29,30.18,18,4,18,0.00
2013-1-1,79.1,71.2,65.6,60.0,34.2,-37.1,52,29,1,30.19,30.04,14,1,14,0.00